Location: Newark
(43.0000°N, 1.6781°W)
Time: 23:35:59
(UTC+00:00)

Vanguard 1 Rocket - Pass Details

Date: 24 April 2021
Orbit: 652 x 4224 km, 34.3° (Epoch: 10 May)

Event Time Altitude Azimuth Distance (km) Brightness Sun altitude
Rises 12:37:13 0° 240° (WSW) 4,850 11.4 59.2°
Reaches altitude 10° 12:41:26 10° 232° (SW) 3,321 10.8 59.0°
Maximum altitude 12:47:48 30° 174° (S) 1,559 9.7 58.6°
Drops below altitude 10° 12:52:08 10° 112° (ESE) 2,223 9.5 58.4°
Sets 12:54:24 0° 100° (E) 3,022 10.0 58.2°
